Time,TemperatureF,DewpointF,PressureIn,WindDirection,WindDirectionDegrees,WindSpeedMPH,WindSpeedGustMPH,Humidity,HourlyPrecipIn,Conditions,Clouds,dailyrainin,SolarRadiationWatts/m^2,SoftwareType,DateUTC
2013-09-19 00:00:00,78.7,67.6,29.65,WSW,252,3.0,13.0,69,0.00,,,0.00,0,HR-IXPWINDi_r2_v1.2.,2013-09-19 05:00:00,
2013-09-19 00:05:00,78.6,67.5,29.65,SSW,195,8.0,13.0,69,0.00,,,0.00,0,HR-IXPWINDi_r2_v1.2.,2013-09-19 05:05:00,
2013-09-19 00:10:00,78.6,67.5,29.65,SW,235,2.0,14.0,69,0.00,,,0.00,0,HR-IXPWINDi_r2_v1.2.,2013-09-19 05:10:00,
2013-09-19 00:16:00,78.6,67.5,29.65,South,189,7.0,17.0,69,0.00,,,0.00,0,HR-IXPWINDi_r2_v1.2.,2013-09-19 05:16:00,
2013-09-19 00:21:00,78.6,67.5,29.65,West,263,7.0,14.0,69,0.00,,,0.00,0,HR-IXPWINDi_r2_v1.2.,2013-09-19 05:21:00,
2013-09-19 00:26:00,78.5,67.0,29.65,South,180,5.0,14.0,68,0.00,,,0.00,0,HR-IXPWINDi_r2_v1.2.,2013-09-19 05:26:00,
2013-09-19 00:31:00,78.5,67.0,29.65,SSW,194,7.0,17.0,68,0.00,,,0.00,0,HR-IXPWINDi_r2_v1.2.,2013-09-19 05:31:00,
2013-09-19 00:36:00,78.5,67.0,29.65,WSW,251,5.0,17.0,68,0.00,,,0.00,0,HR-IXPWINDi_r2_v1.2.,2013-09-19 05:36:00,
2013-09-19 00:41:00,78.5,67.0,29.65,WSW,239,5.0,17.0,68,0.00,,,0.00,0,HR-IXPWINDi_r2_v1.2.,2013-09-19 05:41:00,
2013-09-19 00:46:00,78.3,66.8,29.65,SSE,157,3.0,16.0,68,0.00,,,0.00,0,HR-IXPWINDi_r2_v1.2.,2013-09-19 05:46:00,
2013-09-19 00:52:00,78.2,66.7,29.65,South,185,3.0,17.0,68,0.00,,,0.00,0,HR-IXPWINDi_r2_v1.2.,2013-09-19 05:52:00,
2013-09-19 00:57:00,78.2,66.7,29.65,SSW,203,6.0,17.0,68,0.00,,,0.00,0,HR-IXPWINDi_r2_v1.2.,2013-09-19 05:57:00,
2013-09-19 01:02:00,78.1,67.0,29.65,South,176,7.0,17.0,69,0.00,,,0.00,0,HR-IXPWINDi_r2_v1.2.,2013-09-19 06:02:00,
2013-09-19 01:07:00,78.0,67.0,29.64,SSW,202,9.0,13.0,69,0.00,,,0.00,0,HR-IXPWINDi_r2_v1.2.,2013-09-19 06:07:00,
2013-09-19 01:12:00,77.9,66.9,29.65,WSW,245,3.0,13.0,69,0.00,,,0.00,0,HR-IXPWINDi_r2_v1.2.,2013-09-19 06:12:00,
2013-09-19 01:18:00,77.9,66.9,29.65,NNW,329,2.0,14.0,69,0.00,,,0.00,0,HR-IXPWINDi_r2_v1.2.,2013-09-19 06:18:00,
2013-09-19 01:23:00,77.8,66.8,29.65,SSW,202,2.0,14.0,69,0.00,,,0.00,0,HR-IXPWINDi_r2_v1.2.,2013-09-19 06:23:00,
2013-09-19 01:28:00,77.8,66.8,29.65,SSE,156,5.0,12.0,69,0.00,,,0.00,0,HR-IXPWINDi_r2_v1.2.,2013-09-19 06:28:00,
2013-09-19 01:33:00,77.6,66.6,29.65,SSW,209,4.0,13.0,69,0.00,,,0.00,0,HR-IXPWINDi_r2_v1.2.,2013-09-19 06:33:00,
2013-09-19 01:38:00,77.5,66.9,29.66,SSW,198,3.0,13.0,70,0.00,,,0.00,0,HR-IXPWINDi_r2_v1.2.,2013-09-19 06:38:00,
2013-09-19 01:44:00,77.4,66.8,29.65,SW,234,4.0,14.0,70,0.00,,,0.00,0,HR-IXPWINDi_r2_v1.2.,2013-09-19 06:44:00,
2013-09-19 01:49:00,77.2,66.6,29.65,South,171,8.0,14.0,70,0.00,,,0.00,0,HR-IXPWINDi_r2_v1.2.,2013-09-19 06:49:00,
2013-09-19 01:54:00,77.2,66.6,29.66,South,190,8.0,14.0,70,0.00,,,0.00,0,HR-IXPWINDi_r2_v1.2.,2013-09-19 06:54:00,
2013-09-19 01:59:00,77.1,66.5,29.66,South,169,7.0,14.0,70,0.00,,,0.00,0,HR-IXPWINDi_r2_v1.2.,2013-09-19 06:59:00,
2013-09-19 02:04:00,77.0,66.8,29.65,SSW,210,2.0,14.0,71,0.00,,,0.00,0,HR-IXPWINDi_r2_v1.2.,2013-09-19 07:04:00,
2013-09-19 02:10:00,76.9,66.7,29.66,SSE,150,3.0,12.0,71,0.00,,,0.00,0,HR-IXPWINDi_r2_v1.2.,2013-09-19 07:10:00,
2013-09-19 02:15:00,76.8,66.6,29.66,SSW,211,2.0,12.0,71,0.00,,,0.00,0,HR-IXPWINDi_r2_v1.2.,2013-09-19 07:15:00,
2013-09-19 02:20:00,76.7,66.5,29.66,SSW,199,5.0,11.0,71,0.00,,,0.00,0,HR-IXPWINDi_r2_v1.2.,2013-09-19 07:20:00,
2013-09-19 02:25:00,76.6,66.8,29.66,SSW,192,4.0,12.0,72,0.00,,,0.00,0,HR-IXPWINDi_r2_v1.2.,2013-09-19 07:25:00,
2013-09-19 02:30:00,76.4,66.6,29.66,SSE,154,3.0,12.0,72,0.00,,,0.00,0,HR-IXPWINDi_r2_v1.2.,2013-09-19 07:30:00,
2013-09-19 02:36:00,76.3,66.6,29.66,SSW,197,4.0,11.0,72,0.00,,,0.00,0,HR-IXPWINDi_r2_v1.2.,2013-09-19 07:36:00,
2013-09-19 02:41:00,76.3,66.6,29.66,SSW,192,6.0,12.0,72,0.00,,,0.00,0,HR-IXPWINDi_r2_v1.2.,2013-09-19 07:41:00,
2013-09-19 02:46:00,76.2,66.5,29.65,SSW,202,4.0,12.0,72,0.00,,,0.00,0,HR-IXPWINDi_r2_v1.2.,2013-09-19 07:46:00,
2013-09-19 02:51:00,76.1,66.4,29.66,SSW,195,2.0,12.0,72,0.00,,,0.00,0,HR-IXPWINDi_r2_v1.2.,2013-09-19 07:51:00,
2013-09-19 02:56:00,76.1,66.4,29.65,SW,234,4.0,11.0,72,0.00,,,0.00,0,HR-IXPWINDi_r2_v1.2.,2013-09-19 07:56:00,
2013-09-19 03:01:00,76.0,65.9,29.65,SW,214,7.0,11.0,71,0.00,,,0.00,0,HR-IXPWINDi_r2_v1.2.,2013-09-19 08:01:00,
2013-09-19 03:06:00,76.1,66.0,29.66,South,179,5.0,12.0,71,0.00,,,0.00,0,HR-IXPWINDi_r2_v1.2.,2013-09-19 08:06:00,
2013-09-19 03:12:00,76.4,66.2,29.65,SW,232,5.0,12.0,71,0.00,,,0.00,0,HR-IXPWINDi_r2_v1.2.,2013-09-19 08:12:00,
2013-09-19 03:17:00,76.4,65.8,29.65,SSW,201,5.0,14.0,70,0.00,,,0.00,0,HR-IXPWINDi_r2_v1.2.,2013-09-19 08:17:00,
2013-09-19 03:22:00,76.4,65.8,29.65,SSW,212,1.0,14.0,70,0.00,,,0.00,0,HR-IXPWINDi_r2_v1.2.,2013-09-19 08:22:00,
2013-09-19 03:27:00,76.5,65.9,29.65,SSW,194,8.0,15.0,70,0.00,,,0.00,0,HR-IXPWINDi_r2_v1.2.,2013-09-19 08:27:00,
2013-09-19 03:32:00,76.5,65.5,29.65,SSW,202,3.0,15.0,69,0.00,,,0.00,0,HR-IXPWINDi_r2_v1.2.,2013-09-19 08:32:00,
2013-09-19 03:37:00,76.5,65.5,29.65,South,179,3.0,14.0,69,0.00,,,0.00,0,HR-IXPWINDi_r2_v1.2.,2013-09-19 08:37:00,
2013-09-19 03:43:00,76.6,65.6,29.65,SSW,213,2.0,16.0,69,0.00,,,0.00,0,HR-IXPWINDi_r2_v1.2.,2013-09-19 08:43:00,
2013-09-19 03:48:00,76.7,65.7,29.65,SW,217,7.0,16.0,69,0.00,,,0.00,0,HR-IXPWINDi_r2_v1.2.,2013-09-19 08:48:00,
2013-09-19 03:53:00,76.7,65.3,29.65,SSW,212,3.0,12.0,68,0.00,,,0.00,0,HR-IXPWINDi_r2_v1.2.,2013-09-19 08:53:00,
2013-09-19 03:58:00,76.7,65.3,29.65,WSW,248,5.0,12.0,68,0.00,,,0.00,0,HR-IXPWINDi_r2_v1.2.,2013-09-19 08:58:00,
2013-09-19 04:03:00,76.7,65.7,29.66,SW,236,1.0,13.0,69,0.00,,,0.00,0,HR-IXPWINDi_r2_v1.2.,2013-09-19 09:03:00,
2013-09-19 04:08:00,76.6,65.2,29.65,SW,218,2.0,13.0,68,0.00,,,0.00,0,HR-IXPWINDi_r2_v1.2.,2013-09-19 09:08:00,
2013-09-19 04:14:00,76.6,66.0,29.65,SW,219,3.0,11.0,70,0.00,,,0.00,0,HR-IXPWINDi_r2_v1.2.,2013-09-19 09:14:00,
2013-09-19 04:19:00,76.1,66.0,29.65,SSW,204,7.0,13.0,71,0.00,,,0.00,0,HR-IXPWINDi_r2_v1.2.,2013-09-19 09:19:00,
2013-09-19 04:24:00,75.7,65.6,29.65,WSW,240,2.0,13.0,71,0.00,,,0.00,0,HR-IXPWINDi_r2_v1.2.,2013-09-19 09:24:00,
2013-09-19 04:29:00,75.5,65.8,29.65,SW,230,6.0,15.0,72,0.00,,,0.00,0,HR-IXPWINDi_r2_v1.2.,2013-09-19 09:29:00,
2013-09-19 04:34:00,75.5,65.4,29.65,SW,221,13.0,15.0,71,0.00,,,0.00,0,HR-IXPWINDi_r2_v1.2.,2013-09-19 09:34:00,
2013-09-19 04:39:00,75.8,65.3,29.65,SW,225,8.0,18.0,70,0.00,,,0.00,0,HR-IXPWINDi_r2_v1.2.,2013-09-19 09:39:00,
2013-09-19 04:45:00,76.3,65.3,29.65,SSW,212,10.0,18.0,69,0.00,,,0.00,0,HR-IXPWINDi_r2_v1.2.,2013-09-19 09:45:00,
2013-09-19 04:50:00,76.2,66.1,29.65,South,177,8.0,17.0,71,0.00,,,0.00,0,HR-IXPWINDi_r2_v1.2.,2013-09-19 09:50:00,
2013-09-19 04:55:00,75.3,66.0,29.65,South,184,9.0,17.0,73,0.00,,,0.00,0,HR-IXPWINDi_r2_v1.2.,2013-09-19 09:55:00,
2013-09-19 05:00:00,74.5,66.0,29.65,SW,214,12.0,18.0,75,0.00,,,0.00,0,HR-IXPWINDi_r2_v1.2.,2013-09-19 10:00:00,
2013-09-19 05:05:00,74.1,65.6,29.64,SW,225,3.0,18.0,75,0.00,,,0.00,0,HR-IXPWINDi_r2_v1.2.,2013-09-19 10:05:00,
2013-09-19 05:10:00,73.9,65.4,29.64,SW,223,12.0,18.0,75,0.00,,,0.00,0,HR-IXPWINDi_r2_v1.2.,2013-09-19 10:10:00,
2013-09-19 05:15:00,73.8,65.7,29.64,South,180,8.0,18.0,76,0.00,,,0.00,0,HR-IXPWINDi_r2_v1.2.,2013-09-19 10:15:00,
2013-09-19 05:20:00,73.7,65.6,29.64,SW,215,10.0,17.0,76,0.00,,,0.00,0,HR-IXPWINDi_r2_v1.2.,2013-09-19 10:20:00,
2013-09-19 05:25:00,73.5,65.4,29.64,SSW,207,4.0,17.0,76,0.00,,,0.00,0,HR-IXPWINDi_r2_v1.2.,2013-09-19 10:25:00,
2013-09-19 05:31:00,73.3,65.2,29.64,South,190,6.0,18.0,76,0.00,,,0.00,0,HR-IXPWINDi_r2_v1.2.,2013-09-19 10:31:00,
2013-09-19 05:36:00,73.2,65.1,29.64,SW,220,12.0,18.0,76,0.00,,,0.00,0,HR-IXPWINDi_r2_v1.2.,2013-09-19 10:36:00,
2013-09-19 05:41:00,73.3,64.8,29.64,SW,221,10.0,20.0,75,0.00,,,0.00,0,HR-IXPWINDi_r2_v1.2.,2013-09-19 10:41:00,
2013-09-19 05:46:00,73.6,65.1,29.64,SW,236,9.0,20.0,75,0.00,,,0.00,0,HR-IXPWINDi_r2_v1.2.,2013-09-19 10:46:00,
2013-09-19 05:51:00,73.6,64.7,29.64,SW,232,3.0,17.0,74,0.00,,,0.00,0,HR-IXPWINDi_r2_v1.2.,2013-09-19 10:51:00,
2013-09-19 05:56:00,73.5,64.6,29.65,SW,214,7.0,15.0,74,0.00,,,0.00,0,HR-IXPWINDi_r2_v1.2.,2013-09-19 10:56:00,
2013-09-19 06:01:00,73.3,64.8,29.65,SW,230,5.0,12.0,75,0.00,,,0.00,0,HR-IXPWINDi_r2_v1.2.,2013-09-19 11:01:00,
2013-09-19 06:06:00,73.3,64.5,29.66,SW,232,2.0,16.0,74,0.00,,,0.00,0,HR-IXPWINDi_r2_v1.2.,2013-09-19 11:06:00,
2013-09-19 06:11:00,73.3,64.5,29.66,SW,230,9.0,16.0,74,0.00,,,0.00,0,HR-IXPWINDi_r2_v1.2.,2013-09-19 11:11:00,
2013-09-19 06:16:00,73.5,64.3,29.67,SW,232,7.0,10.0,73,0.00,,,0.00,0,HR-IXPWINDi_r2_v1.2.,2013-09-19 11:16:00,
2013-09-19 06:21:00,73.6,64.4,29.66,SW,214,3.0,10.0,73,0.00,,,0.00,0,HR-IXPWINDi_r2_v1.2.,2013-09-19 11:21:00,
2013-09-19 06:26:00,73.5,64.3,29.67,SW,231,3.0,10.0,73,0.00,,,0.00,0,HR-IXPWINDi_r2_v1.2.,2013-09-19 11:26:00,
2013-09-19 06:31:00,73.4,64.2,29.67,SW,227,4.0,8.0,73,0.00,,,0.00,0,HR-IXPWINDi_r2_v1.2.,2013-09-19 11:31:00,
2013-09-19 06:37:00,73.3,64.1,29.67,SW,225,3.0,8.0,73,0.00,,,0.00,0,HR-IXPWINDi_r2_v1.2.,2013-09-19 11:37:00,
2013-09-19 06:42:00,73.1,63.9,29.67,SW,223,2.0,6.0,73,0.00,,,0.00,0,HR-IXPWINDi_r2_v1.2.,2013-09-19 11:42:00,
2013-09-19 06:47:00,72.9,64.1,29.67,SW,219,1.0,6.0,74,0.00,,,0.00,0,HR-IXPWINDi_r2_v1.2.,2013-09-19 11:47:00,
2013-09-19 06:52:00,72.4,64.0,29.67,SSW,208,3.0,6.0,75,0.00,,,0.00,0,HR-IXPWINDi_r2_v1.2.,2013-09-19 11:52:00,
2013-09-19 06:57:00,72.2,63.8,29.67,SSW,207,0.0,4.0,75,0.00,,,0.00,0,HR-IXPWINDi_r2_v1.2.,2013-09-19 11:57:00,
2013-09-19 07:02:00,72.2,64.2,29.68,SSW,209,2.0,5.0,76,0.00,,,0.00,0,HR-IXPWINDi_r2_v1.2.,2013-09-19 12:02:00,
2013-09-19 07:07:00,71.9,64.2,29.68,SSW,211,3.0,9.0,77,0.00,,,0.00,12,HR-IXPWINDi_r2_v1.2.,2013-09-19 12:07:00,
2013-09-19 07:13:00,71.7,64.0,29.68,SSW,211,5.0,9.0,77,0.00,,,0.00,16,HR-IXPWINDi_r2_v1.2.,2013-09-19 12:13:00,
2013-09-19 07:18:00,71.7,64.0,29.68,SW,223,1.0,9.0,77,0.00,,,0.00,26,HR-IXPWINDi_r2_v1.2.,2013-09-19 12:18:00,
2013-09-19 07:23:00,71.8,64.1,29.69,South,188,8.0,9.0,77,0.00,,,0.00,51,HR-IXPWINDi_r2_v1.2.,2013-09-19 12:23:00,
2013-09-19 07:29:00,72.1,64.4,29.68,SW,221,3.0,9.0,77,0.00,,,0.00,72,HR-IXPWINDi_r2_v1.2.,2013-09-19 12:29:00,
2013-09-19 07:34:00,72.3,64.6,29.68,SSW,201,2.0,9.0,77,0.00,,,0.00,72,HR-IXPWINDi_r2_v1.2.,2013-09-19 12:34:00,
2013-09-19 07:39:00,72.5,65.6,29.68,South,189,2.0,9.0,79,0.00,,,0.01,58,HR-IXPWINDi_r2_v1.2.,2013-09-19 12:39:00,
2013-09-19 07:44:00,72.2,65.6,29.68,SSW,212,2.0,8.0,80,0.16,,,0.02,46,HR-IXPWINDi_r2_v1.2.,2013-09-19 12:44:00,
2013-09-19 07:49:00,71.8,65.6,29.68,SSW,213,5.0,8.0,81,0.07,,,0.02,21,HR-IXPWINDi_r2_v1.2.,2013-09-19 12:49:00,
2013-09-19 07:54:00,71.6,65.8,29.69,SW,218,3.0,9.0,82,0.05,,,0.02,35,HR-IXPWINDi_r2_v1.2.,2013-09-19 12:54:00,
2013-09-19 07:59:00,71.3,65.8,29.69,SSW,200,3.0,10.0,83,0.00,,,0.02,11,HR-IXPWINDi_r2_v1.2.,2013-09-19 12:59:00,
2013-09-19 08:04:00,71.1,65.6,29.70,WSW,239,1.0,10.0,83,0.00,,,0.02,9,HR-IXPWINDi_r2_v1.2.,2013-09-19 13:04:00,
2013-09-19 08:09:00,71.1,65.6,29.70,South,180,4.0,10.0,83,0.00,,,0.02,9,HR-IXPWINDi_r2_v1.2.,2013-09-19 13:09:00,
2013-09-19 08:15:00,71.1,65.6,29.70,SSW,203,4.0,10.0,83,0.00,,,0.02,7,HR-IXPWINDi_r2_v1.2.,2013-09-19 13:15:00,
2013-09-19 08:20:00,70.9,65.8,29.70,SSW,205,7.0,10.0,84,0.00,,,0.02,9,HR-IXPWINDi_r2_v1.2.,2013-09-19 13:20:00,
2013-09-19 08:25:00,70.8,65.7,29.70,SW,217,4.0,8.0,84,0.00,,,0.02,11,HR-IXPWINDi_r2_v1.2.,2013-09-19 13:25:00,
2013-09-19 08:30:00,70.8,65.7,29.70,SW,217,0.0,8.0,84,0.00,,,0.02,21,HR-IXPWINDi_r2_v1.2.,2013-09-19 13:30:00,
2013-09-19 08:35:00,70.8,65.7,29.70,SW,217,0.0,4.0,84,0.00,,,0.02,33,HR-IXPWINDi_r2_v1.2.,2013-09-19 13:35:00,
2013-09-19 08:40:00,70.8,66.0,29.70,SW,217,0.0,1.0,85,0.00,,,0.02,49,HR-IXPWINDi_r2_v1.2.,2013-09-19 13:40:00,
2013-09-19 08:45:00,70.9,66.1,29.71,SW,217,0.0,1.0,85,0.00,,,0.02,76,HR-IXPWINDi_r2_v1.2.,2013-09-19 13:45:00,
2013-09-19 08:50:00,71.8,67.0,29.71,SW,217,0.0,1.0,85,0.00,,,0.02,262,HR-IXPWINDi_r2_v1.2.,2013-09-19 13:50:00,
2013-09-19 08:55:00,73.1,67.9,29.71,SW,217,1.0,1.0,84,0.00,,,0.02,216,HR-IXPWINDi_r2_v1.2.,2013-09-19 13:55:00,
2013-09-19 09:01:00,73.5,68.0,29.71,SW,217,0.0,2.0,83,0.00,,,0.02,221,HR-IXPWINDi_r2_v1.2.,2013-09-19 14:01:00,
2013-09-19 09:06:00,74.0,68.1,29.71,SW,217,0.0,2.0,82,0.00,,,0.02,202,HR-IXPWINDi_r2_v1.2.,2013-09-19 14:06:00,
2013-09-19 09:11:00,74.4,67.8,29.71,SW,217,0.0,1.0,80,0.00,,,0.02,202,HR-IXPWINDi_r2_v1.2.,2013-09-19 14:11:00,
2013-09-19 09:16:00,75.0,68.4,29.71,SW,217,0.0,2.0,80,0.00,,,0.02,176,HR-IXPWINDi_r2_v1.2.,2013-09-19 14:16:00,
2013-09-19 09:24:00,75.0,67.6,29.70,SW,216,0.0,1.0,78,0.00,,,0.02,232,HR-IXPWINDi_r2_v1.2.,2013-09-19 14:24:00,
2013-09-19 09:29:00,76.0,67.4,29.70,SW,216,0.0,2.0,75,0.00,,,0.02,422,HR-IXPWINDi_r2_v1.2.,2013-09-19 14:29:00,
2013-09-19 09:34:00,77.4,68.0,29.70,SW,215,0.0,2.0,73,0.00,,,0.02,385,HR-IXPWINDi_r2_v1.2.,2013-09-19 14:34:00,
2013-09-19 09:40:00,78.2,68.4,29.70,SSW,212,1.0,2.0,72,0.00,,,0.02,399,HR-IXPWINDi_r2_v1.2.,2013-09-19 14:40:00,
2013-09-19 09:45:00,78.9,67.8,29.70,South,182,2.0,7.0,69,0.00,,,0.02,406,HR-IXPWINDi_r2_v1.2.,2013-09-19 14:45:00,
2013-09-19 09:50:00,79.1,67.6,29.70,South,184,1.0,7.0,68,0.00,,,0.02,415,HR-IXPWINDi_r2_v1.2.,2013-09-19 14:50:00,
2013-09-19 09:55:00,79.6,67.6,29.70,South,190,1.0,6.0,67,0.00,,,0.02,445,HR-IXPWINDi_r2_v1.2.,2013-09-19 14:55:00,
2013-09-19 10:00:00,80.3,67.4,29.69,South,182,0.0,6.0,65,0.00,,,0.02,469,HR-IXPWINDi_r2_v1.2.,2013-09-19 15:00:00,
2013-09-19 10:05:00,81.1,67.7,29.70,South,190,3.0,5.0,64,0.00,,,0.02,510,HR-IXPWINDi_r2_v1.2.,2013-09-19 15:05:00,
2013-09-19 10:11:00,81.6,67.7,29.70,SSW,200,2.0,7.0,63,0.00,,,0.02,506,HR-IXPWINDi_r2_v1.2.,2013-09-19 15:11:00,
2013-09-19 10:16:00,82.3,67.5,29.70,SSW,213,7.0,13.0,61,0.00,,,0.02,538,HR-IXPWINDi_r2_v1.2.,2013-09-19 15:16:00,
2013-09-19 10:21:00,82.5,67.2,29.70,SW,218,8.0,14.0,60,0.00,,,0.02,592,HR-IXPWINDi_r2_v1.2.,2013-09-19 15:21:00,
2013-09-19 10:26:00,83.3,66.9,29.70,SSW,198,3.0,14.0,58,0.00,,,0.02,613,HR-IXPWINDi_r2_v1.2.,2013-09-19 15:26:00,
2013-09-19 10:32:00,84.0,66.1,29.70,SW,220,11.0,14.0,55,0.00,,,0.02,642,HR-IXPWINDi_r2_v1.2.,2013-09-19 15:32:00,
2013-09-19 10:37:00,84.5,66.0,29.71,SSW,213,7.0,17.0,54,0.00,,,0.02,640,HR-IXPWINDi_r2_v1.2.,2013-09-19 15:37:00,
2013-09-19 10:42:00,84.5,65.4,29.74,West,269,14.0,22.0,53,0.00,,,0.02,798,HR-IXPWINDi_r2_v1.2.,2013-09-19 15:42:00,
2013-09-19 10:47:00,84.3,65.8,29.76,WNW,283,8.0,23.0,54,0.00,,,0.02,105,HR-IXPWINDi_r2_v1.2.,2013-09-19 15:47:00,
2013-09-19 10:52:00,82.7,65.9,29.76,WNW,293,9.0,23.0,57,0.00,,,0.02,67,HR-IXPWINDi_r2_v1.2.,2013-09-19 15:52:00,
2013-09-19 10:57:00,80.3,65.6,29.75,WNW,301,7.0,21.0,61,0.00,,,0.02,172,HR-IXPWINDi_r2_v1.2.,2013-09-19 15:57:00,
2013-09-19 11:03:00,79.6,64.4,29.73,NW,309,2.0,18.0,60,0.00,,,0.02,274,HR-IXPWINDi_r2_v1.2.,2013-09-19 16:03:00,
2013-09-19 11:08:00,80.7,65.5,29.72,NE,41,3.0,9.0,60,0.00,,,0.02,654,HR-IXPWINDi_r2_v1.2.,2013-09-19 16:08:00,
2013-09-19 11:13:00,81.5,65.3,29.72,WNW,298,2.0,9.0,58,0.00,,,0.02,703,HR-IXPWINDi_r2_v1.2.,2013-09-19 16:13:00,
2013-09-19 11:18:00,81.6,64.8,29.71,NNE,24,5.0,9.0,57,0.00,,,0.02,752,HR-IXPWINDi_r2_v1.2.,2013-09-19 16:18:00,
2013-09-19 11:23:00,81.7,63.9,29.71,NE,42,5.0,9.0,55,0.00,,,0.02,318,HR-IXPWINDi_r2_v1.2.,2013-09-19 16:23:00,
2013-09-19 11:28:00,81.4,64.7,29.71,NE,53,6.0,7.0,57,0.00,,,0.02,749,HR-IXPWINDi_r2_v1.2.,2013-09-19 16:28:00,
2013-09-19 11:33:00,81.1,64.4,29.70,ENE,65,5.0,8.0,57,0.00,,,0.02,381,HR-IXPWINDi_r2_v1.2.,2013-09-19 16:33:00,
2013-09-19 11:39:00,82.3,65.0,29.71,ENE,76,4.0,8.0,56,0.00,,,0.02,872,HR-IXPWINDi_r2_v1.2.,2013-09-19 16:39:00,
2013-09-19 11:44:00,83.3,65.4,29.72,ENE,77,1.0,7.0,55,0.00,,,0.02,722,HR-IXPWINDi_r2_v1.2.,2013-09-19 16:44:00,
2013-09-19 11:49:00,83.3,63.8,29.72,ESE,111,0.0,5.0,52,0.00,,,0.02,223,HR-IXPWINDi_r2_v1.2.,2013-09-19 16:49:00,
2013-09-19 11:54:00,83.5,64.5,29.73,WNW,289,1.0,4.0,53,0.00,,,0.02,199,HR-IXPWINDi_r2_v1.2.,2013-09-19 16:54:00,
2013-09-19 11:59:00,84.0,64.4,29.72,WNW,288,0.0,5.0,52,0.00,,,0.02,374,HR-IXPWINDi_r2_v1.2.,2013-09-19 16:59:00,
2013-09-19 12:04:00,83.9,64.3,29.71,NE,45,3.0,5.0,52,0.00,,,0.02,983,HR-IXPWINDi_r2_v1.2.,2013-09-19 17:04:00,
2013-09-19 12:09:00,83.8,64.8,29.70,NE,47,6.0,6.0,53,0.00,,,0.02,364,HR-IXPWINDi_r2_v1.2.,2013-09-19 17:09:00,
2013-09-19 12:14:00,83.2,64.8,29.70,ESE,103,5.0,8.0,54,0.00,,,0.02,316,HR-IXPWINDi_r2_v1.2.,2013-09-19 17:14:00,
2013-09-19 12:19:00,82.6,64.2,29.70,East,85,1.0,8.0,54,0.00,,,0.02,288,HR-IXPWINDi_r2_v1.2.,2013-09-19 17:19:00,
2013-09-19 12:24:00,83.0,65.1,29.71,East,101,0.0,8.0,55,0.00,,,0.02,223,HR-IXPWINDi_r2_v1.2.,2013-09-19 17:24:00,
2013-09-19 12:30:00,83.4,68.0,29.72,South,188,3.0,5.0,60,1.25,,,0.04,169,HR-IXPWINDi_r2_v1.2.,2013-09-19 17:30:00,
2013-09-19 12:35:00,80.3,68.3,29.73,West,270,2.0,4.0,67,0.13,,,0.06,269,HR-IXPWINDi_r2_v1.2.,2013-09-19 17:35:00,
2013-09-19 12:40:00,79.3,70.2,29.73,WNW,291,1.0,4.0,74,0.12,,,0.07,302,HR-IXPWINDi_r2_v1.2.,2013-09-19 17:40:00,
2013-09-19 12:45:00,79.0,69.9,29.73,NNW,329,1.0,6.0,74,0.06,,,0.07,343,HR-IXPWINDi_r2_v1.2.,2013-09-19 17:45:00,
2013-09-19 12:51:00,76.3,67.7,29.73,WNW,302,7.0,11.0,75,0.04,,,0.07,526,HR-IXPWINDi_r2_v1.2.,2013-09-19 17:51:00,
2013-09-19 12:56:00,74.1,66.7,29.74,NW,304,8.0,16.0,78,0.00,,,0.07,253,HR-IXPWINDi_r2_v1.2.,2013-09-19 17:56:00,
2013-09-19 13:01:00,72.9,66.7,29.74,NW,306,6.0,16.0,81,0.00,,,0.07,264,HR-IXPWINDi_r2_v1.2.,2013-09-19 18:01:00,
2013-09-19 13:06:00,72.8,66.2,29.75,NW,325,6.0,14.0,80,0.00,,,0.07,199,HR-IXPWINDi_r2_v1.2.,2013-09-19 18:06:00,
2013-09-19 13:11:00,72.5,65.9,29.76,WNW,292,5.0,13.0,80,0.00,,,0.07,241,HR-IXPWINDi_r2_v1.2.,2013-09-19 18:11:00,
2013-09-19 13:16:00,72.4,66.2,29.75,North,360,7.0,16.0,81,0.00,,,0.07,381,HR-IXPWINDi_r2_v1.2.,2013-09-19 18:16:00,
2013-09-19 13:22:00,72.9,65.9,29.74,NNW,328,13.0,17.0,79,0.00,,,0.07,399,HR-IXPWINDi_r2_v1.2.,2013-09-19 18:22:00,
2013-09-19 13:27:00,73.4,66.4,29.73,NW,320,6.0,17.0,79,0.00,,,0.07,339,HR-IXPWINDi_r2_v1.2.,2013-09-19 18:27:00,
2013-09-19 13:32:00,73.0,65.7,29.73,WSW,254,7.0,17.0,78,0.00,,,0.07,348,HR-IXPWINDi_r2_v1.2.,2013-09-19 18:32:00,
2013-09-19 13:37:00,73.4,66.1,29.73,NNW,329,5.0,14.0,78,0.00,,,0.07,462,HR-IXPWINDi_r2_v1.2.,2013-09-19 18:37:00,
2013-09-19 13:42:00,74.0,66.3,29.71,WSW,252,9.0,14.0,77,0.00,,,0.07,455,HR-IXPWINDi_r2_v1.2.,2013-09-19 18:42:00,
2013-09-19 13:47:00,74.2,65.7,29.71,NW,312,6.0,14.0,75,0.00,,,0.07,292,HR-IXPWINDi_r2_v1.2.,2013-09-19 18:47:00,
2013-09-19 13:52:00,73.3,65.6,29.72,North,360,9.0,16.0,77,0.00,,,0.07,276,HR-IXPWINDi_r2_v1.2.,2013-09-19 18:52:00,
2013-09-19 13:57:00,72.4,65.1,29.71,North,360,6.0,16.0,78,0.00,,,0.07,251,HR-IXPWINDi_r2_v1.2.,2013-09-19 18:57:00,
2013-09-19 14:03:00,71.5,64.9,29.72,North,360,7.0,17.0,80,0.00,,,0.07,135,HR-IXPWINDi_r2_v1.2.,2013-09-19 19:03:00,
2013-09-19 14:08:00,71.0,65.2,29.73,WSW,258,4.0,17.0,82,0.00,,,0.07,90,HR-IXPWINDi_r2_v1.2.,2013-09-19 19:08:00,
2013-09-19 14:13:00,70.4,64.6,29.73,North,360,8.0,15.0,82,0.00,,,0.07,53,HR-IXPWINDi_r2_v1.2.,2013-09-19 19:13:00,
2013-09-19 14:18:00,70.0,64.5,29.74,North,360,2.0,15.0,83,0.00,,,0.07,26,HR-IXPWINDi_r2_v1.2.,2013-09-19 19:18:00,
2013-09-19 14:23:00,69.8,64.3,29.75,North,360,5.0,13.0,83,0.00,,,0.07,11,HR-IXPWINDi_r2_v1.2.,2013-09-19 19:23:00,
2013-09-19 14:28:00,69.4,64.3,29.75,West,271,3.0,12.0,84,0.00,,,0.07,9,HR-IXPWINDi_r2_v1.2.,2013-09-19 19:28:00,
2013-09-19 14:34:00,69.0,64.2,29.75,WNW,294,6.0,12.0,85,0.00,,,0.07,5,HR-IXPWINDi_r2_v1.2.,2013-09-19 19:34:00,
2013-09-19 14:39:00,68.7,64.3,29.76,North,360,12.0,16.0,86,0.00,,,0.07,0,HR-IXPWINDi_r2_v1.2.,2013-09-19 19:39:00,
2013-09-19 14:44:00,68.4,64.3,29.76,NW,311,5.0,16.0,87,0.00,,,0.08,5,HR-IXPWINDi_r2_v1.2.,2013-09-19 19:44:00,
2013-09-19 14:50:00,68.0,64.2,29.76,NNW,348,5.0,12.0,88,0.09,,,0.09,0,HR-IXPWINDi_r2_v1.2.,2013-09-19 19:50:00,
2013-09-19 14:55:00,67.8,64.4,29.77,North,360,3.0,12.0,89,0.12,,,0.10,0,HR-IXPWINDi_r2_v1.2.,2013-09-19 19:55:00,
2013-09-19 15:00:00,67.7,64.3,29.78,WNW,302,7.0,12.0,89,0.20,,,0.11,0,HR-IXPWINDi_r2_v1.2.,2013-09-19 20:00:00,
2013-09-19 15:05:00,67.5,64.1,29.77,NNW,341,4.0,11.0,89,0.08,,,0.11,0,HR-IXPWINDi_r2_v1.2.,2013-09-19 20:05:00,
2013-09-19 15:10:00,67.3,64.2,29.76,WNW,291,3.0,11.0,90,0.14,,,0.13,0,HR-IXPWINDi_r2_v1.2.,2013-09-19 20:10:00,
2013-09-19 15:16:00,67.1,64.0,29.76,NW,310,5.0,13.0,90,0.12,,,0.14,0,HR-IXPWINDi_r2_v1.2.,2013-09-19 20:16:00,
2013-09-19 15:21:00,67.1,64.0,29.76,NW,304,2.0,13.0,90,0.12,,,0.15,0,HR-IXPWINDi_r2_v1.2.,2013-09-19 20:21:00,
2013-09-19 15:26:00,67.2,64.1,29.76,WNW,300,7.0,10.0,90,0.11,,,0.16,0,HR-IXPWINDi_r2_v1.2.,2013-09-19 20:26:00,
2013-09-19 15:31:00,67.1,64.3,29.74,NW,313,0.0,9.0,91,0.15,,,0.17,5,HR-IXPWINDi_r2_v1.2.,2013-09-19 20:31:00,
2013-09-19 15:36:00,67.1,64.3,29.72,North,10,6.0,9.0,91,0.12,,,0.18,5,HR-IXPWINDi_r2_v1.2.,2013-09-19 20:36:00,
2013-09-19 15:41:00,66.9,64.1,29.69,NNE,13,10.0,12.0,91,0.11,,,0.19,7,HR-IXPWINDi_r2_v1.2.,2013-09-19 20:41:00,
2013-09-19 15:46:00,66.9,64.1,29.68,North,350,10.0,16.0,91,0.10,,,0.19,9,HR-IXPWINDi_r2_v1.2.,2013-09-19 20:46:00,
2013-09-19 15:51:00,66.8,64.0,29.67,North,5,9.0,16.0,91,0.08,,,0.20,11,HR-IXPWINDi_r2_v1.2.,2013-09-19 20:51:00,
2013-09-19 15:57:00,66.8,64.0,29.73,NW,317,6.0,16.0,91,0.08,,,0.21,14,HR-IXPWINDi_r2_v1.2.,2013-09-19 20:57:00,
2013-09-19 16:02:00,67.0,64.2,29.74,WSW,240,4.0,15.0,91,0.08,,,0.21,18,HR-IXPWINDi_r2_v1.2.,2013-09-19 21:02:00,
2013-09-19 16:07:00,67.1,64.3,29.74,NW,304,4.0,13.0,91,0.05,,,0.21,23,HR-IXPWINDi_r2_v1.2.,2013-09-19 21:07:00,
2013-09-19 16:12:00,67.0,63.9,29.74,WNW,294,2.0,13.0,90,0.04,,,0.21,35,HR-IXPWINDi_r2_v1.2.,2013-09-19 21:12:00,
2013-09-19 16:17:00,66.8,63.7,29.74,North,360,3.0,13.0,90,0.00,,,0.21,47,HR-IXPWINDi_r2_v1.2.,2013-09-19 21:17:00,
2013-09-19 16:22:00,67.0,63.6,29.73,NW,308,3.0,10.0,89,0.00,,,0.21,81,HR-IXPWINDi_r2_v1.2.,2013-09-19 21:22:00,
2013-09-19 16:28:00,67.0,63.6,29.75,WNW,301,5.0,9.0,89,0.00,,,0.21,113,HR-IXPWINDi_r2_v1.2.,2013-09-19 21:28:00,
2013-09-19 16:33:00,67.1,63.4,29.75,North,360,3.0,13.0,88,0.00,,,0.21,142,HR-IXPWINDi_r2_v1.2.,2013-09-19 21:33:00,
2013-09-19 16:38:00,67.2,63.5,29.75,NW,304,9.0,13.0,88,0.00,,,0.21,165,HR-IXPWINDi_r2_v1.2.,2013-09-19 21:38:00,
2013-09-19 16:43:00,67.4,63.3,29.74,NNW,340,2.0,11.0,87,0.00,,,0.21,287,HR-IXPWINDi_r2_v1.2.,2013-09-19 21:43:00,
2013-09-19 16:48:00,67.9,63.5,29.73,North,360,1.0,12.0,86,0.00,,,0.21,265,HR-IXPWINDi_r2_v1.2.,2013-09-19 21:48:00,
2013-09-19 16:54:00,68.4,63.6,29.74,NW,313,2.0,12.0,85,0.00,,,0.21,290,HR-IXPWINDi_r2_v1.2.,2013-09-19 21:54:00,
2013-09-19 16:59:00,68.9,63.5,29.75,NW,305,4.0,11.0,83,0.00,,,0.21,230,HR-IXPWINDi_r2_v1.2.,2013-09-19 21:59:00,
2013-09-19 17:04:00,69.2,63.1,29.75,North,360,8.0,12.0,81,0.00,,,0.21,214,HR-IXPWINDi_r2_v1.2.,2013-09-19 22:04:00,
2013-09-19 17:09:00,69.3,62.4,29.75,NNW,348,3.0,12.0,79,0.00,,,0.21,214,HR-IXPWINDi_r2_v1.2.,2013-09-19 22:09:00,
2013-09-19 17:14:00,69.4,62.2,29.75,NNW,337,5.0,11.0,78,0.00,,,0.21,149,HR-IXPWINDi_r2_v1.2.,2013-09-19 22:14:00,
2013-09-19 17:19:00,69.4,61.4,29.75,NE,46,3.0,11.0,76,0.00,,,0.21,167,HR-IXPWINDi_r2_v1.2.,2013-09-19 22:19:00,
2013-09-19 17:24:00,69.6,61.6,29.76,North,360,5.0,10.0,76,0.00,,,0.21,176,HR-IXPWINDi_r2_v1.2.,2013-09-19 22:24:00,
2013-09-19 17:29:00,69.7,61.4,29.76,NW,311,2.0,10.0,75,0.00,,,0.21,139,HR-IXPWINDi_r2_v1.2.,2013-09-19 22:29:00,
2013-09-19 17:34:00,69.7,61.0,29.76,North,360,3.0,9.0,74,0.00,,,0.21,98,HR-IXPWINDi_r2_v1.2.,2013-09-19 22:34:00,
2013-09-19 17:39:00,69.4,60.7,29.77,North,360,4.0,8.0,74,0.00,,,0.21,83,HR-IXPWINDi_r2_v1.2.,2013-09-19 22:39:00,
2013-09-19 17:44:00,69.3,61.0,29.77,North,360,1.0,8.0,75,0.00,,,0.21,90,HR-IXPWINDi_r2_v1.2.,2013-09-19 22:44:00,
2013-09-19 17:50:00,69.3,60.6,29.77,North,360,3.0,10.0,74,0.00,,,0.21,90,HR-IXPWINDi_r2_v1.2.,2013-09-19 22:50:00,
2013-09-19 17:55:00,69.4,60.7,29.77,NW,304,1.0,10.0,74,0.00,,,0.21,98,HR-IXPWINDi_r2_v1.2.,2013-09-19 22:55:00,
2013-09-19 18:00:00,69.4,60.7,29.78,NW,313,5.0,9.0,74,0.00,,,0.21,107,HR-IXPWINDi_r2_v1.2.,2013-09-19 23:00:00,
2013-09-19 18:05:00,69.8,61.1,29.78,North,360,2.0,6.0,74,0.00,,,0.21,290,HR-IXPWINDi_r2_v1.2.,2013-09-19 23:05:00,
2013-09-19 18:10:00,70.8,60.9,29.78,North,360,2.0,10.0,71,0.00,,,0.21,301,HR-IXPWINDi_r2_v1.2.,2013-09-19 23:10:00,
2013-09-19 18:15:00,71.1,59.9,29.79,NNW,341,5.0,10.0,68,0.00,,,0.21,171,HR-IXPWINDi_r2_v1.2.,2013-09-19 23:15:00,
2013-09-19 18:20:00,71.4,59.8,29.79,WNW,297,2.0,9.0,67,0.00,,,0.21,167,HR-IXPWINDi_r2_v1.2.,2013-09-19 23:20:00,
2013-09-19 18:25:00,71.5,58.2,29.80,West,279,8.0,12.0,63,0.00,,,0.21,206,HR-IXPWINDi_r2_v1.2.,2013-09-19 23:25:00,
2013-09-19 18:30:00,71.7,56.1,29.80,NNE,14,6.0,14.0,58,0.00,,,0.21,155,HR-IXPWINDi_r2_v1.2.,2013-09-19 23:30:00,
2013-09-19 18:36:00,70.6,54.1,29.80,North,360,3.0,19.0,56,0.00,,,0.21,72,HR-IXPWINDi_r2_v1.2.,2013-09-19 23:36:00,
2013-09-19 18:41:00,69.7,54.2,29.80,NW,311,9.0,19.0,58,0.00,,,0.21,39,HR-IXPWINDi_r2_v1.2.,2013-09-19 23:41:00,
2013-09-19 18:46:00,68.8,53.4,29.80,North,360,3.0,16.0,58,0.00,,,0.21,25,HR-IXPWINDi_r2_v1.2.,2013-09-19 23:46:00,
2013-09-19 18:51:00,68.1,53.2,29.80,North,360,6.0,15.0,59,0.00,,,0.21,18,HR-IXPWINDi_r2_v1.2.,2013-09-19 23:51:00,
2013-09-19 18:57:00,67.7,53.3,29.81,North,360,4.0,11.0,60,0.00,,,0.21,14,HR-IXPWINDi_r2_v1.2.,2013-09-19 23:57:00,
2013-09-19 19:02:00,67.4,53.4,29.81,NNW,345,5.0,11.0,61,0.00,,,0.21,11,HR-IXPWINDi_r2_v1.2.,2013-09-20 00:02:00,
2013-09-19 19:07:00,67.1,53.6,29.81,NNW,346,2.0,9.0,62,0.00,,,0.21,11,HR-IXPWINDi_r2_v1.2.,2013-09-20 00:07:00,
2013-09-19 19:12:00,67.0,53.5,29.81,North,360,4.0,9.0,62,0.00,,,0.21,9,HR-IXPWINDi_r2_v1.2.,2013-09-20 00:12:00,
2013-09-19 19:17:00,67.1,53.1,29.82,NNW,330,2.0,10.0,61,0.00,,,0.21,9,HR-IXPWINDi_r2_v1.2.,2013-09-20 00:17:00,
2013-09-19 19:22:00,67.2,52.8,29.82,NNE,28,2.0,10.0,60,0.00,,,0.21,5,HR-IXPWINDi_r2_v1.2.,2013-09-20 00:22:00,
2013-09-19 19:28:00,67.1,51.8,29.82,NNE,31,5.0,10.0,58,0.00,,,0.21,0,HR-IXPWINDi_r2_v1.2.,2013-09-20 00:28:00,
2013-09-19 19:33:00,66.9,51.6,29.81,NE,37,5.0,10.0,58,0.00,,,0.21,0,HR-IXPWINDi_r2_v1.2.,2013-09-20 00:33:00,
2013-09-19 19:38:00,66.8,51.0,29.81,NNE,19,3.0,10.0,57,0.00,,,0.21,0,HR-IXPWINDi_r2_v1.2.,2013-09-20 00:38:00,
2013-09-19 19:43:00,66.6,50.8,29.81,NNE,26,4.0,9.0,57,0.00,,,0.21,0,HR-IXPWINDi_r2_v1.2.,2013-09-20 00:43:00,
2013-09-19 19:49:00,66.5,50.7,29.81,North,360,3.0,11.0,57,0.00,,,0.21,0,HR-IXPWINDi_r2_v1.2.,2013-09-20 00:49:00,
2013-09-19 19:54:00,66.7,50.5,29.81,NNE,26,3.0,11.0,56,0.00,,,0.21,0,HR-IXPWINDi_r2_v1.2.,2013-09-20 00:54:00,
2013-09-19 19:59:00,66.8,50.1,29.82,North,360,2.0,9.0,55,0.00,,,0.21,0,HR-IXPWINDi_r2_v1.2.,2013-09-20 00:59:00,
2013-09-19 20:04:00,66.6,49.9,29.83,North,360,6.0,9.0,55,0.00,,,0.21,0,HR-IXPWINDi_r2_v1.2.,2013-09-20 01:04:00,
2013-09-19 20:10:00,66.3,50.1,29.83,NE,34,2.0,7.0,56,0.00,,,0.21,0,HR-IXPWINDi_r2_v1.2.,2013-09-20 01:10:00,
2013-09-19 20:15:00,65.9,50.2,29.83,East,79,5.0,6.0,57,0.00,,,0.21,0,HR-IXPWINDi_r2_v1.2.,2013-09-20 01:15:00,
2013-09-19 20:20:00,65.7,50.0,29.84,North,360,0.0,6.0,57,0.00,,,0.21,0,HR-IXPWINDi_r2_v1.2.,2013-09-20 01:20:00,
2013-09-19 20:25:00,65.5,50.3,29.84,North,360,2.0,6.0,58,0.00,,,0.21,0,HR-IXPWINDi_r2_v1.2.,2013-09-20 01:25:00,
2013-09-19 20:30:00,65.2,50.0,29.85,North,360,6.0,6.0,58,0.00,,,0.21,0,HR-IXPWINDi_r2_v1.2.,2013-09-20 01:30:00,
2013-09-19 20:35:00,64.8,50.1,29.86,North,360,0.0,6.0,59,0.00,,,0.21,0,HR-IXPWINDi_r2_v1.2.,2013-09-20 01:35:00,
2013-09-19 20:40:00,64.6,50.3,29.86,NNE,15,0.0,9.0,60,0.00,,,0.21,0,HR-IXPWINDi_r2_v1.2.,2013-09-20 01:40:00,
2013-09-19 20:45:00,64.6,49.9,29.87,West,278,0.0,9.0,59,0.00,,,0.21,0,HR-IXPWINDi_r2_v1.2.,2013-09-20 01:45:00,
2013-09-19 20:50:00,64.4,50.2,29.88,North,360,2.0,6.0,60,0.00,,,0.21,0,HR-IXPWINDi_r2_v1.2.,2013-09-20 01:50:00,
2013-09-19 20:55:00,64.3,50.1,29.88,NW,305,4.0,7.0,60,0.00,,,0.21,0,HR-IXPWINDi_r2_v1.2.,2013-09-20 01:55:00,
2013-09-19 21:00:00,64.3,50.1,29.89,NW,312,1.0,7.0,60,0.00,,,0.21,0,HR-IXPWINDi_r2_v1.2.,2013-09-20 02:00:00,
2013-09-19 21:06:00,63.9,50.6,29.89,North,360,3.0,7.0,62,0.00,,,0.21,0,HR-IXPWINDi_r2_v1.2.,2013-09-20 02:06:00,
2013-09-19 21:11:00,63.6,50.3,29.89,WNW,298,3.0,9.0,62,0.00,,,0.21,0,HR-IXPWINDi_r2_v1.2.,2013-09-20 02:11:00,
2013-09-19 21:16:00,63.5,50.2,29.89,NW,317,3.0,12.0,62,0.00,,,0.21,0,HR-IXPWINDi_r2_v1.2.,2013-09-20 02:16:00,
2013-09-19 21:21:00,63.3,50.4,29.90,NW,322,4.0,13.0,63,0.00,,,0.21,0,HR-IXPWINDi_r2_v1.2.,2013-09-20 02:21:00,
2013-09-19 21:26:00,63.2,50.8,29.90,NW,304,1.0,13.0,64,0.00,,,0.21,0,HR-IXPWINDi_r2_v1.2.,2013-09-20 02:26:00,
2013-09-19 21:31:00,62.9,50.9,29.90,NNW,339,8.0,16.0,65,0.00,,,0.21,0,HR-IXPWINDi_r2_v1.2.,2013-09-20 02:31:00,
2013-09-19 21:36:00,62.6,51.0,29.90,WNW,300,6.0,16.0,66,0.00,,,0.21,0,HR-IXPWINDi_r2_v1.2.,2013-09-20 02:36:00,
2013-09-19 21:41:00,62.4,50.8,29.91,WNW,293,5.0,13.0,66,0.00,,,0.21,0,HR-IXPWINDi_r2_v1.2.,2013-09-20 02:41:00,
2013-09-19 21:47:00,62.3,51.1,29.91,North,350,2.0,13.0,67,0.00,,,0.21,0,HR-IXPWINDi_r2_v1.2.,2013-09-20 02:47:00,
2013-09-19 21:52:00,62.2,51.1,29.92,WNW,300,8.0,15.0,67,0.00,,,0.21,0,HR-IXPWINDi_r2_v1.2.,2013-09-20 02:52:00,
2013-09-19 21:57:00,61.8,51.5,29.92,North,360,3.0,15.0,69,0.00,,,0.21,0,HR-IXPWINDi_r2_v1.2.,2013-09-20 02:57:00,
2013-09-19 22:02:00,61.6,51.3,29.92,North,360,5.0,12.0,69,0.00,,,0.21,0,HR-IXPWINDi_r2_v1.2.,2013-09-20 03:02:00,
2013-09-19 22:07:00,61.4,51.5,29.92,North,360,8.0,12.0,70,0.00,,,0.21,0,HR-IXPWINDi_r2_v1.2.,2013-09-20 03:07:00,
2013-09-19 22:12:00,61.4,51.5,29.91,NW,325,4.0,11.0,70,0.00,,,0.21,0,HR-IXPWINDi_r2_v1.2.,2013-09-20 03:12:00,
2013-09-19 22:17:00,61.3,51.4,29.92,NW,308,3.0,11.0,70,0.00,,,0.21,0,HR-IXPWINDi_r2_v1.2.,2013-09-20 03:17:00,
2013-09-19 22:22:00,61.2,51.3,29.92,North,360,5.0,11.0,70,0.00,,,0.21,0,HR-IXPWINDi_r2_v1.2.,2013-09-20 03:22:00,
2013-09-19 22:28:00,61.0,51.5,29.92,NW,313,4.0,11.0,71,0.00,,,0.21,0,HR-IXPWINDi_r2_v1.2.,2013-09-20 03:28:00,
2013-09-19 22:33:00,60.8,51.3,29.92,North,360,1.0,10.0,71,0.00,,,0.21,0,HR-IXPWINDi_r2_v1.2.,2013-09-20 03:33:00,
2013-09-19 22:38:00,60.7,51.6,29.92,North,355,0.0,9.0,72,0.00,,,0.21,0,HR-IXPWINDi_r2_v1.2.,2013-09-20 03:38:00,
2013-09-19 22:43:00,60.6,51.5,29.93,North,360,2.0,9.0,72,0.00,,,0.21,0,HR-IXPWINDi_r2_v1.2.,2013-09-20 03:43:00,
2013-09-19 22:48:00,60.5,51.4,29.94,North,360,2.0,10.0,72,0.00,,,0.21,0,HR-IXPWINDi_r2_v1.2.,2013-09-20 03:48:00,
2013-09-19 22:54:00,60.5,51.7,29.94,North,360,2.0,10.0,73,0.00,,,0.21,0,HR-IXPWINDi_r2_v1.2.,2013-09-20 03:54:00,
2013-09-19 22:59:00,60.5,51.7,29.93,WNW,298,0.0,8.0,73,0.00,,,0.21,0,HR-IXPWINDi_r2_v1.2.,2013-09-20 03:59:00,
2013-09-19 23:01:00,60.4,51.6,29.94,North,360,2.0,6.0,73,0.00,,,0.21,0,HR-IXPWINDi_r2_v1.2.,2013-09-20 04:01:00,
2013-09-19 23:06:00,60.2,51.8,29.93,North,360,2.0,10.0,74,0.00,,,0.21,0,HR-IXPWINDi_r2_v1.2.,2013-09-20 04:06:00,
2013-09-19 23:11:00,60.2,51.8,29.94,North,360,2.0,10.0,74,0.00,,,0.21,0,HR-IXPWINDi_r2_v1.2.,2013-09-20 04:11:00,
2013-09-19 23:16:00,60.1,52.1,29.95,WNW,299,3.0,8.0,75,0.00,,,0.21,0,HR-IXPWINDi_r2_v1.2.,2013-09-20 04:16:00,
2013-09-19 23:21:00,60.1,52.1,29.95,North,360,2.0,8.0,75,0.00,,,0.21,0,HR-IXPWINDi_r2_v1.2.,2013-09-20 04:21:00,
2013-09-19 23:27:00,60.0,52.4,29.95,North,360,1.0,8.0,76,0.00,,,0.21,0,HR-IXPWINDi_r2_v1.2.,2013-09-20 04:27:00,
2013-09-19 23:32:00,59.9,52.3,29.95,North,360,3.0,6.0,76,0.00,,,0.21,0,HR-IXPWINDi_r2_v1.2.,2013-09-20 04:32:00,
2013-09-19 23:37:00,59.7,52.4,29.95,North,360,5.0,8.0,77,0.00,,,0.21,0,HR-IXPWINDi_r2_v1.2.,2013-09-20 04:37:00,
2013-09-19 23:42:00,59.6,52.3,29.94,North,360,3.0,9.0,77,0.00,,,0.21,0,HR-IXPWINDi_r2_v1.2.,2013-09-20 04:42:00,
2013-09-19 23:47:00,59.5,52.2,29.94,NW,304,1.0,9.0,77,0.00,,,0.21,0,HR-IXPWINDi_r2_v1.2.,2013-09-20 04:47:00,
2013-09-19 23:52:00,59.3,52.4,29.95,NW,304,3.0,9.0,78,0.00,,,0.21,0,HR-IXPWINDi_r2_v1.2.,2013-09-20 04:52:00,
2013-09-19 23:57:00,59.2,52.3,29.95,North,360,3.0,8.0,78,0.00,,,0.21,0,HR-IXPWINDi_r2_v1.2.,2013-09-20 04:57:00,